Year,Month,Day,Hour,Minute,Value (Times are PST for temperature in C)
2007,05,30,00,00,13.20
2007,05,30,00,01,13.20
2007,05,30,00,02,13.20
2007,05,30,00,03,13.20
2007,05,30,00,04,13.20
2007,05,30,00,05,13.10
2007,05,30,00,06,13.10
2007,05,30,00,07,13.10
2007,05,30,00,08,13.10
2007,05,30,00,09,13.10
2007,05,30,00,10,13.10
2007,05,30,00,11,13.00
2007,05,30,00,12,13.00
2007,05,30,00,13,13.00
2007,05,30,00,14,12.90
2007,05,30,00,15,12.90
2007,05,30,00,16,12.80
2007,05,30,00,17,12.80
2007,05,30,00,18,12.80
2007,05,30,00,19,12.80
2007,05,30,00,20,12.80
2007,05,30,00,21,12.70
2007,05,30,00,22,12.70
2007,05,30,00,23,12.70
2007,05,30,00,24,12.70
2007,05,30,00,25,12.70
2007,05,30,00,26,12.70
2007,05,30,00,27,12.70
2007,05,30,00,28,12.70
2007,05,30,00,29,12.70
2007,05,30,00,30,12.70
2007,05,30,00,31,12.70
2007,05,30,00,32,12.60
2007,05,30,00,33,12.60
2007,05,30,00,34,12.60
2007,05,30,00,35,12.60
2007,05,30,00,36,12.60
2007,05,30,00,37,12.50
2007,05,30,00,38,12.50
2007,05,30,00,39,12.50
2007,05,30,00,40,12.50
2007,05,30,00,41,12.40
2007,05,30,00,42,12.50
2007,05,30,00,43,12.50
2007,05,30,00,44,12.50
2007,05,30,00,45,12.50
2007,05,30,00,46,12.50
2007,05,30,00,47,12.50
2007,05,30,00,48,12.50
2007,05,30,00,49,12.60
2007,05,30,00,50,12.60
2007,05,30,00,51,12.60
2007,05,30,00,52,12.60
2007,05,30,00,53,12.60
2007,05,30,00,54,12.60
2007,05,30,00,55,12.60
2007,05,30,00,56,12.60
2007,05,30,00,57,12.60
2007,05,30,00,58,12.60
2007,05,30,00,59,12.60
2007,05,30,01,00,12.60
2007,05,30,01,01,12.60
2007,05,30,01,02,12.60
2007,05,30,01,03,12.50
2007,05,30,01,04,12.50
2007,05,30,01,05,12.50
2007,05,30,01,06,12.50
2007,05,30,01,07,12.50
2007,05,30,01,08,12.50
2007,05,30,01,09,12.40
2007,05,30,01,10,12.40
2007,05,30,01,11,12.40
2007,05,30,01,12,12.40
2007,05,30,01,13,12.40
2007,05,30,01,14,12.40
2007,05,30,01,15,12.40
2007,05,30,01,16,12.40
2007,05,30,01,17,12.30
2007,05,30,01,18,12.30
2007,05,30,01,19,12.30
2007,05,30,01,20,12.30
2007,05,30,01,21,12.20
2007,05,30,01,22,12.20
2007,05,30,01,23,12.20
2007,05,30,01,24,12.20
2007,05,30,01,25,12.20
2007,05,30,01,26,12.20
2007,05,30,01,27,12.20
2007,05,30,01,28,12.20
2007,05,30,01,29,12.10
2007,05,30,01,30,12.10
2007,05,30,01,31,12.10
2007,05,30,01,32,12.10
2007,05,30,01,33,12.00
2007,05,30,01,34,12.00
2007,05,30,01,35,11.90
2007,05,30,01,36,11.90
2007,05,30,01,37,11.90
2007,05,30,01,38,11.80
2007,05,30,01,39,11.80
2007,05,30,01,40,11.80
2007,05,30,01,41,11.80
2007,05,30,01,42,11.80
2007,05,30,01,43,11.80
2007,05,30,01,44,11.70
2007,05,30,01,45,11.70
2007,05,30,01,46,11.70
2007,05,30,01,47,11.70
2007,05,30,01,48,11.70
2007,05,30,01,49,11.70
2007,05,30,01,50,11.70
2007,05,30,01,51,11.70
2007,05,30,01,52,11.70
2007,05,30,01,53,11.70
2007,05,30,01,54,11.70
2007,05,30,01,55,11.60
2007,05,30,01,56,11.60
2007,05,30,01,57,11.60
2007,05,30,01,58,11.60
2007,05,30,01,59,11.60
2007,05,30,02,00,11.60
2007,05,30,02,01,11.50
2007,05,30,02,02,11.50
2007,05,30,02,03,11.50
2007,05,30,02,04,11.40
2007,05,30,02,05,11.40
2007,05,30,02,06,11.40
2007,05,30,02,07,11.40
2007,05,30,02,08,11.40
2007,05,30,02,09,11.40
2007,05,30,02,10,11.40
2007,05,30,02,11,11.40
2007,05,30,02,12,11.40
2007,05,30,02,13,11.50
2007,05,30,02,14,11.50
2007,05,30,02,15,11.50
2007,05,30,02,16,11.50
2007,05,30,02,17,11.60
2007,05,30,02,18,11.60
2007,05,30,02,19,11.70
2007,05,30,02,20,11.70
2007,05,30,02,21,11.80
2007,05,30,02,22,11.90
2007,05,30,02,23,12.00
2007,05,30,02,24,12.20
2007,05,30,02,25,12.20
2007,05,30,02,26,12.30
2007,05,30,02,27,12.30
2007,05,30,02,28,12.40
2007,05,30,02,29,12.40
2007,05,30,02,30,12.50
2007,05,30,02,31,12.60
2007,05,30,02,32,12.70
2007,05,30,02,33,12.70
2007,05,30,02,34,12.80
2007,05,30,02,35,12.80
2007,05,30,02,36,12.80
2007,05,30,02,37,12.90
2007,05,30,02,38,12.90
2007,05,30,02,39,12.90
2007,05,30,02,40,12.90
2007,05,30,02,41,12.90
2007,05,30,02,42,12.90
2007,05,30,02,43,12.90
2007,05,30,02,44,12.90
2007,05,30,02,45,12.90
2007,05,30,02,46,12.90
2007,05,30,02,47,12.90
2007,05,30,02,48,12.90
2007,05,30,02,49,12.80
2007,05,30,02,50,12.80
2007,05,30,02,51,12.80
2007,05,30,02,52,12.70
2007,05,30,02,53,12.70
2007,05,30,02,54,12.70
2007,05,30,02,55,12.70
2007,05,30,02,56,12.60
2007,05,30,02,57,12.60
2007,05,30,02,58,12.60
2007,05,30,02,59,12.50
2007,05,30,03,00,12.50
2007,05,30,03,01,12.40
2007,05,30,03,02,12.40
2007,05,30,03,03,12.40
2007,05,30,03,04,12.30
2007,05,30,03,05,12.30
2007,05,30,03,06,12.30
2007,05,30,03,07,12.30
2007,05,30,03,08,12.20
2007,05,30,03,09,12.20
2007,05,30,03,10,12.20
2007,05,30,03,11,12.10
2007,05,30,03,12,12.10
2007,05,30,03,13,12.10
2007,05,30,03,14,12.10
2007,05,30,03,15,12.10
2007,05,30,03,16,12.10
2007,05,30,03,17,12.10
2007,05,30,03,18,12.10
2007,05,30,03,19,12.10
2007,05,30,03,20,12.10
2007,05,30,03,21,12.10
2007,05,30,03,22,12.10
2007,05,30,03,23,12.10
2007,05,30,03,24,12.10
2007,05,30,03,25,12.10
2007,05,30,03,26,12.20
2007,05,30,03,27,12.20
2007,05,30,03,28,12.20
2007,05,30,03,29,12.20
2007,05,30,03,30,12.20
2007,05,30,03,31,12.30
2007,05,30,03,32,12.30
2007,05,30,03,33,12.40
2007,05,30,03,34,12.40
2007,05,30,03,35,12.40
2007,05,30,03,36,12.40
2007,05,30,03,37,12.30
2007,05,30,03,38,12.30
2007,05,30,03,39,12.30
2007,05,30,03,40,12.30
2007,05,30,03,41,12.20
2007,05,30,03,42,12.20
2007,05,30,03,43,12.20
2007,05,30,03,44,12.10
2007,05,30,03,45,12.10
2007,05,30,03,46,12.10
2007,05,30,03,47,12.00
2007,05,30,03,48,12.00
2007,05,30,03,49,11.90
2007,05,30,03,50,11.90
2007,05,30,03,51,11.90
2007,05,30,03,52,11.90
2007,05,30,03,53,11.80
2007,05,30,03,54,11.80
2007,05,30,03,55,11.80
2007,05,30,03,56,11.80
2007,05,30,03,57,11.80
2007,05,30,03,58,11.90
2007,05,30,03,59,12.00
2007,05,30,04,00,12.10
2007,05,30,04,01,12.20
2007,05,30,04,02,12.20
2007,05,30,04,03,12.20
2007,05,30,04,04,12.30
2007,05,30,04,05,12.30
2007,05,30,04,06,12.30
2007,05,30,04,07,12.30
2007,05,30,04,08,12.30
2007,05,30,04,09,12.30
2007,05,30,04,10,12.40
2007,05,30,04,11,12.40
2007,05,30,04,12,12.40
2007,05,30,04,13,12.40
2007,05,30,04,14,12.40
2007,05,30,04,15,12.40
2007,05,30,04,16,12.30
2007,05,30,04,17,12.30
2007,05,30,04,18,12.30
2007,05,30,04,19,12.30
2007,05,30,04,20,12.30
2007,05,30,04,21,12.30
2007,05,30,04,22,12.30
2007,05,30,04,23,12.20
2007,05,30,04,24,12.20
2007,05,30,04,25,12.20
2007,05,30,04,26,12.20
2007,05,30,04,27,12.20
2007,05,30,04,28,12.20
2007,05,30,04,29,12.20
2007,05,30,04,30,12.20
2007,05,30,04,31,12.20
2007,05,30,04,32,12.20
2007,05,30,04,33,12.10
2007,05,30,04,34,12.10
2007,05,30,04,35,12.00
2007,05,30,04,36,12.00
2007,05,30,04,37,12.00
2007,05,30,04,38,12.00
2007,05,30,04,39,12.00
2007,05,30,04,40,11.90
2007,05,30,04,41,11.90
2007,05,30,04,42,11.90
2007,05,30,04,43,11.90
2007,05,30,04,44,11.90
2007,05,30,04,45,11.90
2007,05,30,04,46,11.90
2007,05,30,04,47,11.90
2007,05,30,04,48,11.90
2007,05,30,04,49,11.90
2007,05,30,04,50,11.90
2007,05,30,04,51,11.80
2007,05,30,04,52,11.80
2007,05,30,04,53,11.80
2007,05,30,04,54,11.80
2007,05,30,04,55,11.80
2007,05,30,04,56,11.80
2007,05,30,04,57,11.70
2007,05,30,04,58,11.70
2007,05,30,04,59,11.60
2007,05,30,05,00,11.60
2007,05,30,05,01,11.50
2007,05,30,05,02,11.50
2007,05,30,05,03,11.50
2007,05,30,05,04,11.40
2007,05,30,05,05,11.40
2007,05,30,05,06,11.40
2007,05,30,05,07,11.30
2007,05,30,05,08,11.30
2007,05,30,05,09,11.30
2007,05,30,05,10,11.30
2007,05,30,05,11,11.30
2007,05,30,05,12,11.30
2007,05,30,05,13,11.30
2007,05,30,05,14,11.30
2007,05,30,05,15,11.20
2007,05,30,05,16,11.20
2007,05,30,05,17,11.20
2007,05,30,05,18,11.20
2007,05,30,05,19,11.20
2007,05,30,05,20,11.20
2007,05,30,05,21,11.20
2007,05,30,05,22,11.20
2007,05,30,05,23,11.20
2007,05,30,05,24,11.20
2007,05,30,05,25,11.10
2007,05,30,05,26,11.10
2007,05,30,05,27,11.00
2007,05,30,05,28,11.00
2007,05,30,05,29,10.90
2007,05,30,05,30,10.90
2007,05,30,05,31,10.90
2007,05,30,05,32,10.80
2007,05,30,05,33,10.80
2007,05,30,05,34,10.80
2007,05,30,05,35,10.80
2007,05,30,05,36,10.80
2007,05,30,05,37,10.80
2007,05,30,05,38,10.80
2007,05,30,05,39,10.80
2007,05,30,05,40,10.80
2007,05,30,05,41,10.80
2007,05,30,05,42,10.80
2007,05,30,05,43,10.80
2007,05,30,05,44,10.80
2007,05,30,05,45,10.80
2007,05,30,05,46,10.80
2007,05,30,05,47,10.80
2007,05,30,05,48,10.80
2007,05,30,05,49,10.80
2007,05,30,05,50,10.80
2007,05,30,05,51,10.80
2007,05,30,05,52,10.80
2007,05,30,05,53,10.80
2007,05,30,05,54,10.80
2007,05,30,05,55,10.80
2007,05,30,05,56,10.80
2007,05,30,05,57,10.90
2007,05,30,05,58,10.90
2007,05,30,05,59,10.90
2007,05,30,06,00,10.90
2007,05,30,06,01,11.00
2007,05,30,06,02,11.00
2007,05,30,06,03,11.00
2007,05,30,06,04,11.10
2007,05,30,06,05,11.10
2007,05,30,06,06,11.10
2007,05,30,06,07,11.20
2007,05,30,06,08,11.20
2007,05,30,06,09,11.20
2007,05,30,06,10,11.30
2007,05,30,06,11,11.30
2007,05,30,06,12,11.30
2007,05,30,06,13,11.30
2007,05,30,06,14,11.30
2007,05,30,06,15,11.40
2007,05,30,06,16,11.40
2007,05,30,06,17,11.40
2007,05,30,06,18,11.50
2007,05,30,06,19,11.50
2007,05,30,06,20,11.60
2007,05,30,06,21,11.60
2007,05,30,06,22,11.70
2007,05,30,06,23,11.70
2007,05,30,06,24,11.80
2007,05,30,06,25,11.90
2007,05,30,06,26,12.00
2007,05,30,06,27,12.10
2007,05,30,06,28,12.30
2007,05,30,06,29,12.40
2007,05,30,06,30,12.50
2007,05,30,06,31,12.60
2007,05,30,06,32,12.70
2007,05,30,06,33,12.80
2007,05,30,06,34,12.90
2007,05,30,06,35,13.00
2007,05,30,06,36,13.10
2007,05,30,06,37,13.20
2007,05,30,06,38,13.20
2007,05,30,06,39,13.30
2007,05,30,06,40,13.40
2007,05,30,06,41,13.50
2007,05,30,06,42,13.50
2007,05,30,06,43,13.60
2007,05,30,06,44,13.70
2007,05,30,06,45,13.80
2007,05,30,06,46,13.90
2007,05,30,06,47,14.00
2007,05,30,06,48,14.00
2007,05,30,06,49,14.10
2007,05,30,06,50,14.20
2007,05,30,06,51,14.30
2007,05,30,06,52,14.30
2007,05,30,06,53,14.40
2007,05,30,06,54,14.40
2007,05,30,06,55,14.50
2007,05,30,06,56,14.60
2007,05,30,06,57,14.60
2007,05,30,06,58,14.60
2007,05,30,06,59,14.70
2007,05,30,07,00,14.70
2007,05,30,07,01,14.70
2007,05,30,07,02,14.80
2007,05,30,07,03,14.80
2007,05,30,07,04,14.90
2007,05,30,07,05,15.00
2007,05,30,07,06,15.00
2007,05,30,07,07,15.10
2007,05,30,07,08,15.20
2007,05,30,07,09,15.30
2007,05,30,07,10,15.50
2007,05,30,07,11,15.60
2007,05,30,07,12,15.70
2007,05,30,07,13,15.80
2007,05,30,07,14,15.80
2007,05,30,07,15,15.90
2007,05,30,07,16,16.00
2007,05,30,07,17,16.00
2007,05,30,07,18,16.00
2007,05,30,07,19,16.00
2007,05,30,07,20,16.10
2007,05,30,07,21,16.10
2007,05,30,07,22,16.10
2007,05,30,07,23,16.10
2007,05,30,07,24,16.20
2007,05,30,07,25,16.30
2007,05,30,07,26,16.30
2007,05,30,07,27,16.30
2007,05,30,07,28,16.40
2007,05,30,07,29,16.40
2007,05,30,07,30,16.50
2007,05,30,07,31,16.60
2007,05,30,07,32,16.60
2007,05,30,07,33,16.60
2007,05,30,07,34,16.60
2007,05,30,07,35,16.60
2007,05,30,07,36,16.60
2007,05,30,07,37,16.50
2007,05,30,07,38,16.50
2007,05,30,07,39,16.40
2007,05,30,07,40,16.30
2007,05,30,07,41,16.30
2007,05,30,07,42,16.30
2007,05,30,07,43,16.30
2007,05,30,07,44,16.20
2007,05,30,07,45,16.20
2007,05,30,07,46,16.20
2007,05,30,07,47,16.20
2007,05,30,07,48,16.20
2007,05,30,07,49,16.20
2007,05,30,07,50,16.20
2007,05,30,07,51,16.20
2007,05,30,07,52,16.20
2007,05,30,07,53,16.20
2007,05,30,07,54,16.20
2007,05,30,07,55,16.20
2007,05,30,07,56,16.20
2007,05,30,07,57,16.30
2007,05,30,07,58,16.30
2007,05,30,07,59,16.30
2007,05,30,08,00,16.40
2007,05,30,08,01,16.50
2007,05,30,08,02,16.50
2007,05,30,08,03,16.60
2007,05,30,08,04,16.60
2007,05,30,08,05,16.70
2007,05,30,08,06,16.70
2007,05,30,08,07,16.70
2007,05,30,08,08,16.80
2007,05,30,08,09,16.90
2007,05,30,08,10,17.00
2007,05,30,08,11,17.10
2007,05,30,08,12,17.10
2007,05,30,08,13,17.10
2007,05,30,08,14,17.20
2007,05,30,08,15,17.20
2007,05,30,08,16,17.30
2007,05,30,08,17,17.40
2007,05,30,08,18,17.50
2007,05,30,08,19,17.60
2007,05,30,08,20,17.70
2007,05,30,08,21,17.80
2007,05,30,08,22,17.90
2007,05,30,08,23,18.00
2007,05,30,08,24,18.10
2007,05,30,08,25,18.10
2007,05,30,08,26,18.20
2007,05,30,08,27,18.20
2007,05,30,08,28,18.20
2007,05,30,08,29,18.10
2007,05,30,08,30,18.10
2007,05,30,08,31,18.00
2007,05,30,08,32,18.00
2007,05,30,08,33,18.00
2007,05,30,08,34,18.00
2007,05,30,08,35,17.90
2007,05,30,08,36,17.90
2007,05,30,08,37,17.90
2007,05,30,08,38,17.80
2007,05,30,08,39,17.80
2007,05,30,08,40,17.80
2007,05,30,08,41,17.80
2007,05,30,08,42,17.80
2007,05,30,08,43,17.90
2007,05,30,08,44,18.00
2007,05,30,08,45,18.00
2007,05,30,08,46,18.00
2007,05,30,08,47,17.90
2007,05,30,08,48,17.90
2007,05,30,08,49,17.80
2007,05,30,08,50,17.90
2007,05,30,08,51,17.90
2007,05,30,08,52,18.00
2007,05,30,08,53,18.00
2007,05,30,08,54,18.00
2007,05,30,08,55,18.00
2007,05,30,08,56,18.00
2007,05,30,08,57,18.10
2007,05,30,08,58,18.20
2007,05,30,08,59,18.20
2007,05,30,09,00,18.20
2007,05,30,09,01,18.20
2007,05,30,09,02,18.30
2007,05,30,09,03,18.30
2007,05,30,09,04,18.30
2007,05,30,09,05,18.30
2007,05,30,09,06,18.40
2007,05,30,09,07,18.40
2007,05,30,09,08,18.50
2007,05,30,09,09,18.50
2007,05,30,09,10,18.60
2007,05,30,09,11,18.60
2007,05,30,09,12,18.70
2007,05,30,09,13,18.70
2007,05,30,09,14,18.60
2007,05,30,09,15,18.60
2007,05,30,09,16,18.60
2007,05,30,09,17,18.70
2007,05,30,09,18,18.80
2007,05,30,09,19,18.80
2007,05,30,09,20,18.70
2007,05,30,09,21,18.70
2007,05,30,09,22,18.70
2007,05,30,09,23,18.70
2007,05,30,09,24,18.70
2007,05,30,09,25,18.70
2007,05,30,09,26,18.70
2007,05,30,09,27,18.70
2007,05,30,09,28,18.80
2007,05,30,09,29,18.80
2007,05,30,09,30,18.80
2007,05,30,09,31,18.90
2007,05,30,09,32,18.90
2007,05,30,09,33,18.90
2007,05,30,09,34,18.80
2007,05,30,09,35,18.70
2007,05,30,09,36,18.70
2007,05,30,09,37,18.70
2007,05,30,09,38,18.80
2007,05,30,09,39,18.80
2007,05,30,09,40,18.90
2007,05,30,09,41,18.90
2007,05,30,09,42,18.90
2007,05,30,09,43,18.90
2007,05,30,09,44,18.90
2007,05,30,09,45,19.00
2007,05,30,09,46,18.90
2007,05,30,09,47,19.00
2007,05,30,09,48,19.10
2007,05,30,09,49,19.20
2007,05,30,09,50,19.30
2007,05,30,09,51,19.30
2007,05,30,09,52,19.40
2007,05,30,09,53,19.40
2007,05,30,09,54,19.40
2007,05,30,09,55,19.40
2007,05,30,09,56,19.30
2007,05,30,09,57,19.20
2007,05,30,09,58,19.10
2007,05,30,09,59,19.10
2007,05,30,10,00,19.10
2007,05,30,10,01,19.20
2007,05,30,10,02,19.20
2007,05,30,10,03,19.30
2007,05,30,10,04,19.30
2007,05,30,10,05,19.30
2007,05,30,10,06,19.30
2007,05,30,10,07,19.30
2007,05,30,10,08,19.30
2007,05,30,10,09,19.40
2007,05,30,10,10,19.40
2007,05,30,10,11,19.40
2007,05,30,10,12,19.50
2007,05,30,10,13,19.50
2007,05,30,10,14,19.50
2007,05,30,10,15,19.50
2007,05,30,10,16,19.60
2007,05,30,10,17,19.70
2007,05,30,10,18,19.60
2007,05,30,10,19,19.60
2007,05,30,10,20,19.50
2007,05,30,10,21,19.40
2007,05,30,10,22,19.50
2007,05,30,10,23,19.60
2007,05,30,10,24,19.60
2007,05,30,10,25,19.60
2007,05,30,10,26,19.70
2007,05,30,10,27,19.70
2007,05,30,10,28,19.70
2007,05,30,10,29,19.70
2007,05,30,10,30,19.80
2007,05,30,10,31,19.80
2007,05,30,10,32,19.90
2007,05,30,10,33,20.00
2007,05,30,10,34,20.10
2007,05,30,10,35,20.20
2007,05,30,10,36,20.20
2007,05,30,10,37,20.20
2007,05,30,10,38,20.20
2007,05,30,10,39,20.20
2007,05,30,10,40,20.10
2007,05,30,10,41,20.00
2007,05,30,10,42,19.90
2007,05,30,10,43,19.90
2007,05,30,10,44,20.00
2007,05,30,10,45,20.00
2007,05,30,10,46,20.10
2007,05,30,10,47,20.10
2007,05,30,10,48,20.10
2007,05,30,10,49,20.10
2007,05,30,10,50,20.10
2007,05,30,10,51,20.20
2007,05,30,10,52,20.10
2007,05,30,10,53,20.00
2007,05,30,10,54,20.00
2007,05,30,10,55,20.00
2007,05,30,10,56,20.00
2007,05,30,10,57,20.00
2007,05,30,10,58,20.10
2007,05,30,10,59,20.30
2007,05,30,11,00,20.50
2007,05,30,11,01,20.50
2007,05,30,11,02,20.60
2007,05,30,11,03,20.60
2007,05,30,11,04,20.70
2007,05,30,11,05,20.70
2007,05,30,11,06,20.70
2007,05,30,11,07,20.80
2007,05,30,11,08,20.80
2007,05,30,11,09,20.80
2007,05,30,11,10,20.90
2007,05,30,11,11,21.00
2007,05,30,11,12,21.00
2007,05,30,11,13,21.10
2007,05,30,11,14,21.00
2007,05,30,11,15,21.00
2007,05,30,11,16,21.10
2007,05,30,11,17,21.10
2007,05,30,11,18,21.20
2007,05,30,11,19,21.30
2007,05,30,11,20,21.30
2007,05,30,11,21,21.40
2007,05,30,11,22,21.40
2007,05,30,11,23,21.30
2007,05,30,11,24,21.30
2007,05,30,11,25,21.20
2007,05,30,11,26,21.20
2007,05,30,11,27,21.30
2007,05,30,11,28,21.30
2007,05,30,11,29,21.30
2007,05,30,11,30,21.30
2007,05,30,11,31,21.30
2007,05,30,11,32,21.40
2007,05,30,11,33,21.50
2007,05,30,11,34,21.60
2007,05,30,11,35,21.60
2007,05,30,11,36,21.70
2007,05,30,11,37,21.60
2007,05,30,11,38,21.50
2007,05,30,11,39,21.40
2007,05,30,11,40,21.40
2007,05,30,11,41,21.40
2007,05,30,11,42,21.40
2007,05,30,11,43,21.50
2007,05,30,11,44,21.40
2007,05,30,11,45,21.40
2007,05,30,11,46,21.50
2007,05,30,11,47,21.50
2007,05,30,11,48,21.50
2007,05,30,11,49,21.50
2007,05,30,11,50,21.40
2007,05,30,11,51,21.40
2007,05,30,11,52,21.40
2007,05,30,11,53,21.40
2007,05,30,11,54,21.50
2007,05,30,11,55,21.60
2007,05,30,11,56,21.70
2007,05,30,11,57,21.80
2007,05,30,11,58,21.90
2007,05,30,11,59,21.90
2007,05,30,12,00,21.90
2007,05,30,12,01,21.80
2007,05,30,12,02,21.80
2007,05,30,12,03,21.90
2007,05,30,12,04,22.10
2007,05,30,12,05,22.10
2007,05,30,12,06,22.00
2007,05,30,12,07,22.00
2007,05,30,12,08,21.90
2007,05,30,12,09,22.00
2007,05,30,12,10,22.10
2007,05,30,12,11,22.10
2007,05,30,12,12,22.00
2007,05,30,12,13,21.90
2007,05,30,12,14,21.80
2007,05,30,12,15,21.90
2007,05,30,12,16,22.00
2007,05,30,12,17,22.10
2007,05,30,12,18,22.20
2007,05,30,12,19,22.30
2007,05,30,12,20,22.40
2007,05,30,12,21,22.50
2007,05,30,12,22,22.60
2007,05,30,12,23,22.70
2007,05,30,12,24,22.70
2007,05,30,12,25,22.80
2007,05,30,12,26,23.00
2007,05,30,12,27,23.10
2007,05,30,12,28,23.10
2007,05,30,12,29,23.00
2007,05,30,12,30,22.80
2007,05,30,12,31,22.70
2007,05,30,12,32,22.60
2007,05,30,12,33,22.60
2007,05,30,12,34,22.60
2007,05,30,12,35,22.50
2007,05,30,12,36,22.30
2007,05,30,12,37,22.30
2007,05,30,12,38,22.20
2007,05,30,12,39,22.30
2007,05,30,12,40,22.30
2007,05,30,12,41,22.30
2007,05,30,12,42,22.40
2007,05,30,12,43,22.40
2007,05,30,12,44,22.40
2007,05,30,12,45,22.50
2007,05,30,12,46,22.60
2007,05,30,12,47,22.70
2007,05,30,12,48,22.70
2007,05,30,12,49,22.70
2007,05,30,12,50,22.70
2007,05,30,12,51,22.70
2007,05,30,12,52,22.80
2007,05,30,12,53,22.70
2007,05,30,12,54,22.60
2007,05,30,12,55,22.60
2007,05,30,12,56,22.70
2007,05,30,12,57,22.70
2007,05,30,12,58,22.80
2007,05,30,12,59,22.80
2007,05,30,13,00,22.80
2007,05,30,13,01,22.90
2007,05,30,13,02,23.00
2007,05,30,13,03,23.20
2007,05,30,13,04,23.40
2007,05,30,13,05,23.50
2007,05,30,13,06,23.40
2007,05,30,13,07,23.40
2007,05,30,13,08,23.50
2007,05,30,13,09,23.60
2007,05,30,13,10,23.60
2007,05,30,13,11,23.60
2007,05,30,13,12,23.50
2007,05,30,13,13,23.40
2007,05,30,13,14,23.40
2007,05,30,13,15,23.50
2007,05,30,13,16,23.70
2007,05,30,13,17,23.80
2007,05,30,13,18,23.90
2007,05,30,13,19,24.00
2007,05,30,13,20,24.00
2007,05,30,13,21,24.00
2007,05,30,13,22,24.10
2007,05,30,13,23,24.10
2007,05,30,13,24,24.20
2007,05,30,13,25,24.20
2007,05,30,13,26,24.10
2007,05,30,13,27,24.10
2007,05,30,13,28,24.10
2007,05,30,13,29,24.10
2007,05,30,13,30,24.10
2007,05,30,13,31,24.10
2007,05,30,13,32,24.10
2007,05,30,13,33,24.10
2007,05,30,13,34,24.10
2007,05,30,13,35,24.00
2007,05,30,13,36,24.00
2007,05,30,13,37,24.10
2007,05,30,13,38,24.00
2007,05,30,13,39,24.00
2007,05,30,13,40,23.90
2007,05,30,13,41,23.90
2007,05,30,13,42,24.00
2007,05,30,13,43,24.20
2007,05,30,13,44,24.30
2007,05,30,13,45,24.20
2007,05,30,13,46,24.30
2007,05,30,13,47,24.40
2007,05,30,13,48,24.50
2007,05,30,13,49,24.60
2007,05,30,13,50,24.60
2007,05,30,13,51,24.60
2007,05,30,13,52,24.60
2007,05,30,13,53,24.60
2007,05,30,13,54,24.70
2007,05,30,13,55,24.60
2007,05,30,13,56,24.70
2007,05,30,13,57,24.80
2007,05,30,13,58,24.90
2007,05,30,13,59,25.00
2007,05,30,14,00,25.00
2007,05,30,14,01,25.00
2007,05,30,14,02,25.10
2007,05,30,14,03,25.00
2007,05,30,14,04,24.90
2007,05,30,14,05,24.70
2007,05,30,14,06,24.60
2007,05,30,14,07,24.40
2007,05,30,14,08,24.10
2007,05,30,14,09,24.00
2007,05,30,14,10,23.90
2007,05,30,14,11,23.90
2007,05,30,14,12,23.90
2007,05,30,14,13,23.80
2007,05,30,14,14,23.70
2007,05,30,14,15,23.80
2007,05,30,14,16,23.80
2007,05,30,14,17,23.80
2007,05,30,14,18,23.90
2007,05,30,14,19,23.90
2007,05,30,14,20,24.00
2007,05,30,14,21,24.10
2007,05,30,14,22,24.00
2007,05,30,14,23,23.90
2007,05,30,14,24,23.80
2007,05,30,14,25,23.80
2007,05,30,14,26,23.90
2007,05,30,14,27,24.00
2007,05,30,14,28,24.10
2007,05,30,14,29,24.10
2007,05,30,14,30,24.20
2007,05,30,14,31,24.20
2007,05,30,14,32,24.30
2007,05,30,14,33,24.40
2007,05,30,14,34,24.40
2007,05,30,14,35,24.50
2007,05,30,14,36,24.80
2007,05,30,14,37,25.00
2007,05,30,14,38,25.10
2007,05,30,14,39,25.20
2007,05,30,14,40,25.20
2007,05,30,14,41,25.30
2007,05,30,14,42,25.30
2007,05,30,14,43,25.20
2007,05,30,14,44,25.10
2007,05,30,14,45,25.00
2007,05,30,14,46,24.90
2007,05,30,14,47,24.90
2007,05,30,14,48,25.00
2007,05,30,14,49,25.10
2007,05,30,14,50,25.10
2007,05,30,14,51,25.00
2007,05,30,14,52,24.90
2007,05,30,14,53,24.90
2007,05,30,14,54,25.00
2007,05,30,14,55,25.10
2007,05,30,14,56,25.20
2007,05,30,14,57,25.30
2007,05,30,14,58,25.30
2007,05,30,14,59,25.30
2007,05,30,15,00,25.20
2007,05,30,15,01,25.20
2007,05,30,15,02,25.20
2007,05,30,15,03,25.10
2007,05,30,15,04,24.90
2007,05,30,15,05,24.90
2007,05,30,15,06,24.80
2007,05,30,15,07,24.80
2007,05,30,15,08,25.00
2007,05,30,15,09,25.00
2007,05,30,15,10,25.10
2007,05,30,15,11,25.30
2007,05,30,15,12,25.40
2007,05,30,15,13,25.40
2007,05,30,15,14,25.40
2007,05,30,15,15,25.40
2007,05,30,15,16,25.40
2007,05,30,15,17,25.30
2007,05,30,15,18,25.30
2007,05,30,15,19,25.30
2007,05,30,15,20,25.20
2007,05,30,15,21,25.10
2007,05,30,15,22,25.00
2007,05,30,15,23,24.90
2007,05,30,15,24,24.90
2007,05,30,15,25,24.90
2007,05,30,15,26,24.90
2007,05,30,15,27,25.00
2007,05,30,15,28,25.00
2007,05,30,15,29,24.90
2007,05,30,15,30,25.00
2007,05,30,15,31,25.10
2007,05,30,15,32,25.20
2007,05,30,15,33,25.20
2007,05,30,15,34,25.30
2007,05,30,15,35,25.30
2007,05,30,15,36,25.50
2007,05,30,15,37,25.70
2007,05,30,15,38,25.90
2007,05,30,15,39,26.10
2007,05,30,15,40,26.30
2007,05,30,15,41,26.40
2007,05,30,15,42,26.40
2007,05,30,15,43,26.50
2007,05,30,15,44,26.60
2007,05,30,15,45,26.70
2007,05,30,15,46,26.80
2007,05,30,15,47,26.70
2007,05,30,15,48,26.70
2007,05,30,15,49,26.80
2007,05,30,15,50,26.90
2007,05,30,15,51,26.90
2007,05,30,15,52,26.70
2007,05,30,15,53,26.50
2007,05,30,15,54,26.40
2007,05,30,15,55,26.40
2007,05,30,15,56,26.30
2007,05,30,15,57,26.30
2007,05,30,15,58,26.30
2007,05,30,15,59,26.20
2007,05,30,16,00,26.20
2007,05,30,16,01,26.10
2007,05,30,16,02,26.10
2007,05,30,16,03,26.00
2007,05,30,16,04,26.10
2007,05,30,16,05,26.20
2007,05,30,16,06,26.20
2007,05,30,16,07,26.30
2007,05,30,16,08,26.30
2007,05,30,16,09,26.20
2007,05,30,16,10,26.10
2007,05,30,16,11,26.20
2007,05,30,16,12,26.20
2007,05,30,16,13,26.30
2007,05,30,16,14,26.40
2007,05,30,16,15,26.30
2007,05,30,16,16,26.20
2007,05,30,16,17,26.10
2007,05,30,16,18,26.00
2007,05,30,16,19,25.90
2007,05,30,16,20,25.90
2007,05,30,16,21,25.90
2007,05,30,16,22,25.90
2007,05,30,16,23,25.90
2007,05,30,16,24,25.90
2007,05,30,16,25,25.90
2007,05,30,16,26,26.10
2007,05,30,16,27,26.20
2007,05,30,16,28,26.30
2007,05,30,16,29,26.40
2007,05,30,16,30,26.40
2007,05,30,16,31,26.40
2007,05,30,16,32,26.40
2007,05,30,16,33,26.30
2007,05,30,16,34,26.30
2007,05,30,16,35,26.30
2007,05,30,16,36,26.30
2007,05,30,16,37,26.30
2007,05,30,16,38,26.30
2007,05,30,16,39,26.20
2007,05,30,16,40,26.20
2007,05,30,16,41,26.20
2007,05,30,16,42,26.20
2007,05,30,16,43,26.10
2007,05,30,16,44,26.10
2007,05,30,16,45,26.00
2007,05,30,16,46,25.90
2007,05,30,16,47,25.90
2007,05,30,16,48,25.90
2007,05,30,16,49,25.90
2007,05,30,16,50,25.90
2007,05,30,16,51,25.90
2007,05,30,16,52,25.80
2007,05,30,16,53,25.80
2007,05,30,16,54,25.80
2007,05,30,16,55,25.90
2007,05,30,16,56,25.80
2007,05,30,16,57,25.90
2007,05,30,16,58,25.90
2007,05,30,16,59,26.00
2007,05,30,17,00,26.10
2007,05,30,17,01,26.20
2007,05,30,17,02,26.30
2007,05,30,17,03,26.30
2007,05,30,17,04,26.20
2007,05,30,17,05,26.00
2007,05,30,17,06,25.90
2007,05,30,17,07,25.70
2007,05,30,17,08,25.70
2007,05,30,17,09,25.70
2007,05,30,17,10,25.60
2007,05,30,17,11,25.50
2007,05,30,17,12,25.30
2007,05,30,17,13,25.10
2007,05,30,17,14,25.10
2007,05,30,17,15,25.00
2007,05,30,17,16,24.90
2007,05,30,17,17,24.90
2007,05,30,17,18,25.00
2007,05,30,17,19,25.00